Overview Statistics Trail Chart Weather Telemetry Raw packets
 

This is the latest recevied weather packets stored in our database for station/object WA6ODQ-13. If no packets are shown the sender has not sent any weather packets the latest 10 day(s).

<< 13 14 15 16 17 18 19 >>
Time Temp. Humidity Pressure Rain* Wind** Luminosity Snow
1788574951 20.56° C 55% 1011.1 hPa 0 mm - 8 W/m² -
1788574645 21.11° C 54% 1011.2 hPa 0 mm - 10 W/m² -
1788574340 21.11° C 54% 1011.1 hPa 0 mm - 13 W/m² -
1788574035 21.11° C 53% 1011.1 hPa 0 mm - 16 W/m² -
1788573730 21.67° C 54% 1011.1 hPa 0 mm - 19 W/m² -
1788573428 22.22° C 53% 1011.2 hPa 0 mm - 24 W/m² -
1788573123 22.22° C 53% 1011.1 hPa 0 mm - 34 W/m² -
1788572822 22.78° C 52% 1011 hPa 0 mm - 39 W/m² -
1788572517 22.78° C 51% 1011.1 hPa 0 mm - 46 W/m² -
1788572214 22.78° C 50% 1011.1 hPa 0 mm - 53 W/m² -
1788571909 23.33° C 50% 1011.1 hPa 0 mm - 61 W/m² -
1788571604 23.33° C 49% 1010.7 hPa 0 mm - 69 W/m² -
1788571300 23.89° C 49% 1011 hPa 0 mm - 77 W/m² -
1788570997 23.89° C 49% 1010.8 hPa 0 mm - 87 W/m² -
1788570692 23.89° C 49% 1010.8 hPa 0 mm - 95 W/m² -
1788570387 23.89° C 49% 1010.9 hPa 0 mm - 106 W/m² -
1788570083 24.44° C 49% 1010.8 hPa 0 mm - 117 W/m² -
1788569779 24.44° C 48% 1010.7 hPa 0 mm - 127 W/m² -
1788569474 24.44° C 48% 1010.9 hPa 0 mm - 142 W/m² -
1788569174 24.44° C 48% 1010.7 hPa 0 mm - 155 W/m² -
1788568869 24.44° C 48% 1010.8 hPa 0 mm - 167 W/m² -
1788568565 25° C 47% 1010.8 hPa 0 mm - 180 W/m² -
1788568260 25° C 47% 1010.6 hPa 0 mm - 194 W/m² -
1788567955 25° C 46% 1010.8 hPa 0 mm - 206 W/m² -
1788567650 25° C 46% 1010.7 hPa 0 mm - 220 W/m² -

* Rain latest hour (hover to see other rain measurements)
** Current wind speed in m/s (hover to see current wind gust speed)